Regional Weather Roundup
Issued by NWS Boston, MA

Home | Current Version | Previous Version | Text Only | Print | Product List | Glossary On
Versions: 1 2 3 4 5 6 7 8 9 10 11 12 13 14 15 16 17 18 19 20 21 22 23 24 25 26 27 28 29 30 31 32 33 34 35 36 37 38 39 40 41 42 43 44 45 46 47 48 49 50
000
ASUS41 KBOX 260410
RWRBOX

REGIONAL WEATHER ROUNDUP
NATIONAL WEATHER SERVICE TAUNTON MA
1200 AM EDT TUE MAY 26 2015

NOTE:  "FAIR" INDICATES FEW OR NO CLOUDS BELOW 12,000 FEET WITH NO
SIGNIFICANT WEATHER AND/OR OBSTRUCTIONS TO VISIBILITY.  THE FOLLOWING
OBSERVATION LOCATIONS DO NOT REPORT PRESENT WEATHER...PROVINCETOWN...
SMITHFIELD...BLOCK ISLAND...KEENE...AND OXFORD.

MAZALL-260500-
EASTERN MASSACHUSETTS

CITY           SKY/WX    TMP DP  RH WIND       PRES   REMARKS
BOSTON         LGT RAIN  66  57  72 SW15G21   30.16S
BEVERLY        CLOUDY    69  57  65 SW12      30.13F
LAWRENCE       LGT RAIN  68  59  73 SW6       30.15S
BEDFORD        CLOUDY    67  58  72 SW8       30.13S
BLUE HILL        N/A     62  55  77 S18       30.17R
NORWOOD        CLOUDY    65  56  72 S6        30.17S
MARSHFIELD     MOCLDY    66  55  68 SW12G21   30.19S
PLYMOUTH       MOCLDY    63  55  75 SW17G24   30.21R
TAUNTON        MOCLDY    64  55  72 SW9       30.20R
NEW BEDFORD    MOCLDY    62  54  74 SW14      30.21S
$$

MAZALL-260500-
CAPE COD AND THE ISLANDS

CITY           SKY/WX    TMP DP  RH WIND       PRES   REMARKS
FALMOUTH       CLOUDY    61  55  82 SW15G25   30.23S
HYANNIS        PTCLDY    61  56  83 SW14G25   30.22S
CHATHAM        PTCLDY    60  57  89 SW9G21    30.25R
PROVINCETOWN   MOCLDY    59  54  82 SW16G22   30.20F
NANTUCKET      PTCLDY    58  55  90 S14       30.26S
MARTHAS VNYRD  MOCLDY    59  55  87 SW13      30.24S
$$

MAZALL-260500-
CENTRAL AND WESTERN MASSACHUSETTS

CITY           SKY/WX    TMP DP  RH WIND       PRES   REMARKS
WORCESTER      LGT RAIN  66  57  72 SW14      30.17S
FITCHBURG      LGT RAIN  71  57  61 S8        30.14S
ORANGE         CLOUDY    68  57  68 S8        30.14S
SPRINGFIELD    CLOUDY    69  57  65 S13       30.14S
WESTFIELD      CLOUDY    69  57  65 S8        30.14S
NORTH ADAMS    CLOUDY    75  55  49 SW8G18    30.11R
PITTSFIELD     CLOUDY    72  55  55 S12G23    30.13S
$$

RIZALL-260500-
RHODE ISLAND

CITY           SKY/WX    TMP DP  RH WIND       PRES   REMARKS
PROVIDENCE     CLOUDY    65  54  67 SW14G21   30.21R
NEWPORT        CLOUDY    59  53  80 S10       30.22S
BLOCK ISLAND   MOCLDY    57  52  82 SW20      30.23S
SMITHFIELD     CLOUDY    64  52  63 SW6       30.19R
WESTERLY       MOCLDY    64  52  64 SW9G25    30.23R
$$

CTZALL-260500-
CONNECTICUT

CITY           SKY/WX    TMP DP  RH WIND       PRES   REMARKS
BRADLEY INTL   CLOUDY    70  56  61 S12       30.15S
HARTFORD       MOCLDY    69  56  62 S9        30.16S
BRIDGEPORT     MOCLDY    63  56  78 SW13      30.20R
DANBURY        PTCLDY    68  55  63 S10       30.20R
GROTON         MOCLDY    62  53  72 SW12      30.21R
NEW HAVEN      MOCLDY    63  55  75 SW7       30.21R
CHESTER        FAIR      64  55  72 SW10G18   30.22S
MERIDEN        MOCLDY    67  55  65 S9        30.19R
WILLIMANTIC    CLOUDY    68  55  63 S7        30.19S
OXFORD         PTCLDY    66  55  68 SW8       30.20F
$$

MEZ002-015-021-024-NHZ003-005-008-011-012-014-VTZ005-008-260500-
NORTHERN NEW ENGLAND

CITY           SKY/WX    TMP DP  RH WIND       PRES   REMARKS
PORTLAND ME    LGT RAIN  64  56  75 S10       30.09F
BANGOR ME      LGT RAIN  60  56  86 S8        30.11F FOG
CONCORD NH     CLOUDY    68  58  70 S9        30.10S
MANCHESTER NH  CLOUDY    69  59  70 S9        30.10S
NASHUA NH      LGT RAIN  70  60  70 VRB5      30.13S
PORTSMOUTH NH  LGT RAIN  69  57  65 S8        30.10S
JAFFREY NH     LGT RAIN  68  56  65 SW8       30.15S
KEENE NH       CLOUDY   N/A N/A N/A S7        30.12S
BURLINGTON VT  CLOUDY    65  61  87 SW5       30.01R
MT. WASHINGTON DRIZZLE   52  48  87 W62         N/A
$$

NYZ052-076-260500-
EASTERN NEW YORK

CITY           SKY/WX    TMP DP  RH WIND       PRES   REMARKS
ALBANY         CLOUDY    77  54  44 S10       30.06S
NEW YORK CITY  PTCLDY    72  57  59 SW10      30.20R
$$

ANZALL-260500-
MARINE OBSERVATIONS

STATION/POSITION TIME  TEMP    WIND        PRES    VSBY  WAVE
                       AIR SEA DIR/SP/G                  HT/PER
                 (UTC) (F)     (DEG/KT/KT) (MB)    (MI)  (FT/S)
BOSTON BUOY      0350   60 54  190/ 10/ 12   N/A           2/ 3
BUZZARDS BAY     0300          220/ 11/ 12   N/A
NANTUCKET SOUND  0350   61 58  210/ 19/ 23   N/A           2/ 3
MASS BAY-STELLWA NOT AVBL
ISLE OF SHOALS   0300   60     180/ 21/ 22   N/A
S OF BLOCK IS    0308      54                N/A           4/ 5
$$

......................KEY.........................
  SKY/WX - SKY CONDITION/PRESENT WEATHER
  TMP    - TEMPERATURE IN FAHRENHEIT
  DWPT   - DEWPOINT IN FAHRENHEIT
  RH     - RELATIVE HUMIDITY IN PERCENT
  WIND   - DIRECTION AND SPEED IN MPH
  PRES   - MEAN SEA LEVEL PRESSURE IN INCHES OF HG
  WCI    - WIND CHILL INDEX
  VSB    - VISIBILITY IN MILES
  HX     - HEAT INDEX
  TC     - TEMPERATURE IN CELSIUS
  VRB    - VARIABLE WIND DIRECTION
  N/A    - NOT AVAILABLE



USA.gov is the U.S. government's official web portal to all federal, state and local government web resources and services.